Kezdőlap
METAR-TAF:

METAR-TAF

Repülőterek :

Illinois Valley Regional Airport (Walter A. Duncan Field)

Peru-LaSalle, Illinois, Amerikai Egyesült Államok

földrajzi szélesség: 41-21-07N, földrajzi hosszúság: 089-09-11W, magasság: 199 m

Jelenlegi meteorológiai megfigyelések

A jelentés 21 perccel ezelõtt készült, 14:15 UTC
Észak-északnyugati szél 4 kt
Hőmérséklet 0°C
Páratartalom 93%
Légköri nyomás 1027 hPa
Látótávolság: 11.3 km
Derült ég

METAR: KVYS 041415Z AUTO 34004KT 7SM CLR 00/M01 A3032 RMK AO2 T10051010

Idő: 08:36 (14:36 UTC)


TAF: hiányzik

Meteorológiai megfigyelések és előrejelzések több, mint 4000 repülőtéren (METAR és TAF jelentéseket).

A térképen piros és sárga pontok jelzik az elérhető meteorológiai állomásokat.

Mozgassa az egeret a pont fölött, hogy megjelenjen az állomás neve.

Azután kattintson az időjárási megfigyelések és előrejelzések megtekintéséhez.

A térkép megváltoztatása: kattintson a fekete keresztel jelölt zöld gombra ráközelítéshez, a vonallal jelölt zöld gombra távolításhoz, vagy a zöld nyilakra a szomszédos térképek eléréséhez.


METAR-TAF: